Silver City, NM

10:13 AM MDT on May 22, 2017 (GMT -0600)
Grant County

Weather History for KSVC - March, 2013

Change the Weather History Date:

Friday, March 22, 2013

  Actual Average (KDMN) Record (KDMN)
Temperature  
Mean Temperature 57 °F -  
Max Temperature 68 °F 72 °F 87 °F (2017)
Min Temperature 46 °F 36 °F 18 °F (1952)
Degree Days  
Heating Degree Days 8    
Growing Degree Days 7 (Base 50)    
Moisture  
Dew Point 22 °F    
Average Humidity 28    
Maximum Humidity 54    
Minimum Humidity 13    
Precipitation  
Precipitation 0.00 in - - ()
Sea Level Pressure  
Sea Level Pressure 29.85 in    
Wind  
Wind Speed 14 mph (WNW)    
Max Wind Speed 37 mph    
Max Gust Speed 44 mph    
Visibility 10 miles    
Events      
Averages and records for this station are not official NWS values.
T = Trace of Precipitation, MM = Missing Value Source: NWS Daily Summary

Daily Weather History Graph

Daily Weather History Graph

Search for Another Location

Airport or City:

Trip Planner

Search our weather history database for the weather conditions in past years. The results will help you decide how hot, cold, wet, or windy it might be!

Date:

Astronomy

Mar. 22, 2013 Rise Set
Actual Time 7:13 AM MDT 7:25 PM MDT
Civil Twilight 6:48 AM MDT 7:50 PM MDT
Nautical Twilight 6:20 AM MDT 8:19 PM MDT
Astronomical Twilight 5:51 AM MDT 8:48 PM MDT
Moon 3:08 PM MDT 4:01 AM MDT
Length of Visible Light 13h 01m
Length of Day
12h 12m
Waxing Gibbous, 78% of the Moon is Illuminated
Mar 22
Waxing Gibbous
Mar 27
Full
Apr 2
Last Quarter
Apr 10
New
Apr 18
First Quarter

Hourly Weather History & Observations

Time (MDT) Temp. Windchill Dew Point Humidity Pressure Visibility Wind Dir Wind Speed Gust Speed Precip Events Conditions
12:15 AM 55.4 °F - 24.8 °F 31% 29.88 in 10.0 mi WNW 12.7 mph - N/A   Clear
12:35 AM 53.6 °F - 24.8 °F 33% 29.87 in 10.0 mi WNW 13.8 mph - N/A   Clear
12:55 AM 53.6 °F - 24.8 °F 33% 29.88 in 10.0 mi WNW 12.7 mph - N/A   Clear
1:15 AM 51.8 °F - 24.8 °F 35% 29.88 in 10.0 mi NW 9.2 mph - N/A   Clear
1:35 AM 50.0 °F - 24.8 °F 37% 29.87 in 10.0 mi North 5.8 mph - N/A   Clear
1:55 AM 48.2 °F - 24.8 °F 40% 29.87 in 10.0 mi WNW 3.5 mph - N/A   Clear
2:15 AM 48.2 °F - 24.8 °F 40% 29.87 in 10.0 mi North 3.5 mph - N/A   Clear
2:35 AM 48.2 °F - 24.8 °F 40% 29.86 in 10.0 mi NNE 4.6 mph - N/A   Clear
2:55 AM 48.2 °F - 24.8 °F 40% 29.86 in 10.0 mi NNW 3.5 mph - N/A   Clear
3:15 AM 48.2 °F - 24.8 °F 40% 29.86 in 10.0 mi Calm Calm - N/A   Clear
3:35 AM 50.0 °F - 24.8 °F 37% 29.86 in 10.0 mi North 3.5 mph - N/A   Clear
3:55 AM 48.2 °F - 24.8 °F 40% 29.85 in 10.0 mi NNW 8.1 mph - N/A   Clear
4:15 AM 48.2 °F - 24.8 °F 40% 29.84 in 10.0 mi NNW 8.1 mph - N/A   Clear
4:35 AM 48.2 °F - 24.8 °F 40% 29.84 in 10.0 mi NNW 9.2 mph - N/A   Clear
4:55 AM 50.0 °F - 24.8 °F 37% 29.85 in 10.0 mi NNW 9.2 mph - N/A   Clear
5:15 AM 53.6 °F - 24.8 °F 33% 29.85 in 10.0 mi NW 11.5 mph - N/A   Clear
5:35 AM 53.6 °F - 24.8 °F 33% 29.85 in 10.0 mi West 9.2 mph - N/A   Clear
5:55 AM 55.4 °F - 28.4 °F 36% 29.85 in 10.0 mi West 20.7 mph 34.5 mph N/A   Clear
6:15 AM 55.4 °F - 28.4 °F 36% 29.86 in 10.0 mi WNW 23.0 mph 35.7 mph N/A   Clear
6:35 AM 53.6 °F - 28.4 °F 38% 29.86 in 10.0 mi WNW 24.2 mph 31.1 mph N/A   Partly Cloudy
6:55 AM 50.0 °F - 32.0 °F 50% 29.87 in 10.0 mi NW 15.0 mph 26.5 mph N/A   Partly Cloudy
7:15 AM 50.0 °F - 32.0 °F 50% 29.86 in 10.0 mi NNW 4.6 mph - N/A   Partly Cloudy
7:35 AM 48.2 °F - 32.0 °F 54% 29.86 in 10.0 mi WNW 4.6 mph - N/A   Clear
7:55 AM 50.0 °F - 32.0 °F 50% 29.87 in 10.0 mi WNW 6.9 mph - N/A   Partly Cloudy
8:15 AM 50.0 °F - 30.2 °F 47% 29.88 in 10.0 mi WNW 11.5 mph - N/A   Clear
8:35 AM 55.4 °F - 28.4 °F 36% 29.88 in 10.0 mi West 11.5 mph - N/A   Clear
8:55 AM 57.2 °F - 24.8 °F 29% 29.89 in 10.0 mi West 13.8 mph - N/A   Clear
9:15 AM 59.0 °F - 23.0 °F 25% 29.89 in 10.0 mi West 13.8 mph 21.9 mph N/A   Clear
9:35 AM 59.0 °F - 21.2 °F 23% 29.89 in 10.0 mi WSW 16.1 mph 23.0 mph N/A   Clear
9:55 AM 60.8 °F - 19.4 °F 20% 29.89 in 10.0 mi West 24.2 mph 28.8 mph N/A   Clear
10:15 AM 62.6 °F - 21.2 °F 20% 29.89 in 10.0 mi West 17.3 mph 28.8 mph N/A   Clear
10:35 AM 60.8 °F - 19.4 °F 20% 29.89 in 10.0 mi WNW 21.9 mph 27.6 mph N/A   Clear
10:55 AM 62.6 °F - 19.4 °F 19% 29.89 in 10.0 mi West 23.0 mph 29.9 mph N/A   Clear
11:15 AM 62.6 °F - 21.2 °F 20% 29.88 in 10.0 mi West 20.7 mph 27.6 mph N/A   Clear
11:35 AM 62.6 °F - 21.2 °F 20% 29.88 in 10.0 mi West 20.7 mph 32.2 mph N/A   Clear
11:55 AM 64.4 °F - 19.4 °F 18% 29.88 in 10.0 mi West 16.1 mph 31.1 mph N/A   Clear
12:15 PM 64.4 °F - 21.2 °F 19% 29.87 in 10.0 mi WSW 20.7 mph 32.2 mph N/A   Clear
12:35 PM 64.4 °F - 21.2 °F 19% 29.86 in 10.0 mi West 17.3 mph 29.9 mph N/A   Clear
12:55 PM 64.4 °F - 21.2 °F 19% 29.85 in 10.0 mi West 20.7 mph 29.9 mph N/A   Clear
1:15 PM 64.4 °F - 21.2 °F 19% 29.84 in 10.0 mi WNW 20.7 mph 29.9 mph N/A   Partly Cloudy
1:35 PM 66.2 °F - 21.2 °F 18% 29.84 in 10.0 mi West 19.6 mph 32.2 mph N/A   Mostly Cloudy
1:55 PM 64.4 °F - 21.2 °F 19% 29.83 in 10.0 mi West 25.3 mph 33.4 mph N/A   Scattered Clouds
2:15 PM 64.4 °F - 21.2 °F 19% 29.82 in 10.0 mi West 17.3 mph 34.5 mph N/A   Scattered Clouds
2:35 PM 66.2 °F - 19.4 °F 17% 29.81 in 10.0 mi WSW 25.3 mph 34.5 mph N/A   Partly Cloudy
2:55 PM 66.2 °F - 23.0 °F 19% 29.81 in 10.0 mi West 26.5 mph 36.8 mph N/A   Scattered Clouds
3:15 PM 66.2 °F - 23.0 °F 19% 29.80 in 10.0 mi West 24.2 mph 35.7 mph N/A   Scattered Clouds
3:35 PM 66.2 °F - 21.2 °F 18% 29.80 in 10.0 mi West 23.0 mph 38.0 mph N/A   Scattered Clouds
3:55 PM 68.0 °F - 19.4 °F 16% 29.78 in 10.0 mi WSW 23.0 mph 32.2 mph N/A   Mostly Cloudy
4:15 PM 68.0 °F - 19.4 °F 16% 29.78 in 10.0 mi West 24.2 mph 39.1 mph N/A   Partly Cloudy
4:35 PM 68.0 °F - 17.6 °F 15% 29.78 in 10.0 mi West 31.1 mph 39.1 mph N/A   Partly Cloudy
4:55 PM 66.2 °F - 17.6 °F 15% 29.77 in 10.0 mi West 31.1 mph 40.3 mph N/A   Scattered Clouds
5:15 PM 68.0 °F - 15.8 °F 13% 29.77 in 10.0 mi West 36.8 mph 43.7 mph N/A   Partly Cloudy
5:35 PM 66.2 °F - 15.8 °F 14% 29.78 in 10.0 mi West 20.7 mph 41.4 mph N/A   Partly Cloudy
5:55 PM 66.2 °F - 14.0 °F 13% 29.77 in 10.0 mi WNW 31.1 mph 40.3 mph N/A   Clear
6:15 PM 66.2 °F - 15.8 °F 14% 29.78 in 10.0 mi West 28.8 mph 34.5 mph N/A   Clear
6:35 PM 64.4 °F - 14.0 °F 14% 29.79 in 10.0 mi West 19.6 mph 42.6 mph N/A   Clear
6:55 PM 64.4 °F - 14.0 °F 14% 29.79 in 10.0 mi West 31.1 mph 35.7 mph N/A   Clear
7:15 PM 62.6 °F - 14.0 °F 15% 29.80 in 10.0 mi West 19.6 mph 34.5 mph N/A   Clear
7:35 PM 60.8 °F - 15.8 °F 17% 29.80 in 10.0 mi WNW 17.3 mph 28.8 mph N/A   Clear
7:55 PM 59.0 °F - 19.4 °F 22% 29.81 in 10.0 mi WNW 15.0 mph 24.2 mph N/A   Clear
8:15 PM 59.0 °F - 21.2 °F 23% 29.82 in 10.0 mi WNW 15.0 mph - N/A   Clear
8:35 PM 57.2 °F - 21.2 °F 25% 29.83 in 10.0 mi WNW 15.0 mph - N/A   Clear
8:55 PM 57.2 °F - 21.2 °F 25% 29.83 in 10.0 mi West 13.8 mph - N/A   Clear
9:15 PM 53.6 °F - 21.2 °F 28% 29.85 in 10.0 mi WNW 11.5 mph - N/A   Clear
9:35 PM 53.6 °F - 21.2 °F 28% 29.85 in 10.0 mi WNW 12.7 mph - N/A   Clear
9:55 PM 53.6 °F - 21.2 °F 28% 29.86 in 10.0 mi West 11.5 mph - N/A   Clear
10:15 PM 53.6 °F - 21.2 °F 28% 29.87 in 10.0 mi WNW 10.4 mph - N/A   Clear
10:35 PM 50.0 °F - 21.2 °F 32% 29.88 in 10.0 mi NW 9.2 mph - N/A   Clear
10:55 PM 46.4 °F 41.9 °F 19.4 °F 34% 29.88 in 10.0 mi NNW 9.2 mph - N/A   Clear
11:15 PM 46.4 °F 41.1 °F 19.4 °F 34% 29.89 in 10.0 mi NNW 11.5 mph - N/A   Clear
11:35 PM 48.2 °F - 21.2 °F 34% 29.88 in 10.0 mi NNW 13.8 mph - N/A   Clear
11:55 PM 48.2 °F - 21.2 °F 34% 29.89 in 10.0 mi NNW 12.7 mph - N/A   Clear